This is the latest recevied weather packets stored in our database for station/object K7FRY. If no packets are shown the sender has not sent any weather packets the latest 10 day(s).
| Time | Temp. | Humidity | Pressure | Rain* | Wind** | Luminosity | Snow |
|---|---|---|---|---|---|---|---|
| 1777545098 | 16.67° C | 26% | 1013.6 hPa | 0 mm | - | 0 W/m² | - |
| 1777544795 | 17.22° C | 26% | 1013.7 hPa | 0 mm | - | 0 W/m² | - |
| 1777544491 | 17.22° C | 26% | 1013.6 hPa | 0 mm | - | 0 W/m² | - |
| 1777544188 | 16.67° C | 26% | 1013.7 hPa | 0 mm | - | 0 W/m² | - |
| 1777543885 | 17.22° C | 26% | 1013.9 hPa | 0 mm | - | 0 W/m² | - |
| 1777543581 | 16.67° C | 26% | 1013.8 hPa | 0 mm | - | 0 W/m² | - |
| 1777543277 | 16.11° C | 26% | 1013.9 hPa | 0 mm | - | 0 W/m² | - |
| 1777542973 | 16.67° C | 26% | 1013.9 hPa | 0 mm | - | 0 W/m² | - |
| 1777542670 | 16.67° C | 26% | 1014 hPa | 0 mm | - | 0 W/m² | - |
| 1777542366 | 18.33° C | 24% | 1014 hPa | 0 mm | - | 0 W/m² | - |
| 1777542063 | 18.89° C | 24% | 1014.4 hPa | 0 mm | - | 0 W/m² | - |
| 1777541760 | 18.33° C | 24% | 1014 hPa | 0 mm | - | 0 W/m² | - |
| 1777541457 | 17.78° C | 24% | 1014.4 hPa | 0 mm | - | 0 W/m² | - |
| 1777541153 | 17.78° C | 24% | 1014.1 hPa | 0 mm | - | 0 W/m² | - |
| 1777540850 | 18.33° C | 24% | 1014.1 hPa | 0 mm | - | 0 W/m² | - |
| 1777540548 | 18.33° C | 23% | 1014.4 hPa | 0 mm | - | 0 W/m² | - |
| 1777540243 | 18.33° C | 23% | 1014.2 hPa | 0 mm | - | 0 W/m² | - |
| 1777539939 | 18.89° C | 23% | 1013.9 hPa | 0 mm | - | 0 W/m² | - |
| 1777539636 | 18.89° C | 23% | 1013.8 hPa | 0 mm | - | 0 W/m² | - |
| 1777539332 | 18.33° C | 23% | 1013.8 hPa | 0 mm | - | 0 W/m² | - |
| 1777539029 | 18.33° C | 23% | 1014 hPa | 0 mm | - | 0 W/m² | - |
| 1777538725 | 18.89° C | 23% | 1014.2 hPa | 0 mm | - | 0 W/m² | - |
| 1777538420 | 19.44° C | 22% | 1014.6 hPa | 0 mm | - | 0 W/m² | - |
| 1777538116 | 19.44° C | 22% | 1014.7 hPa | 0 mm | - | 0 W/m² | - |
| 1777537811 | 19.44° C | 22% | 1014.5 hPa | 0 mm | - | 0 W/m² | - |
* Rain latest hour (hover to see other rain measurements)
** Current wind speed in m/s (hover to see current wind gust speed)